Temp
60 61 61 63 62 65 66 64 60 52 54 52 49 48 47 46 46 46 46 46 46 46 46 47 47 47 46 46 47 47 48 47 47 46 46 46 46 46
60 60 61 63 61 62 64 64 63 61 53 51 47 45 45 44 45 43 43 44 43 43 43 42 42 42 42 43 44 45 44 44 44 44 43 43 44 44
60 60 60 62 61 58 61 63 61 62 51 44 44 42 41 40 40 40 40 39 39 40 39 39 39 40 40 40 41 42 41 41 41 41 41 41 42 42
59 59 60 60 60 60 58 61 60 58 53 44 41 40 39 38 37 36 37 38 37 39 39 39 39 39 39 39 39 39 39 38 38 38 38 38 39 39
59 59 59 59 58 59 57 58 59 56 51 45 40 38 37 37 35 34 33 33 35 38 38 39 40 40 39 39 38 38 37 37 36 37 37 36 37 37
59 59 60 59 59 58 56 55 55 51 48 43 38 35 35 35 34 30 29 31 31 35 35 36 38 39 40 39 38 37 37 36 37 37 36 36 36 37
57 59 58 57 52 54 57 54 52 47 44 40 35 32 30 31 31 32 29 28 29 31 32 34 34 35 36 38 38 37 37 37 37 37 37 37 37 36
54 52 55 50 49 46 45 46 49 47 43 41 38 35 32 33 31 31 27 26 25 32 31 32 35 34 35 35 37 37 37 37 37 37 37 37 36 36
51 43 38 41 41 38 36 36 35 37 41 39 38 35 31 32 32 30 30 29 26 29 31 29 33 32 35 37 38 38 38 37 38 38 37 37 37 37
34 35 36 34 37 35 36 33 32 32 33 33 35 31 31 33 33 32 28 27 29 30 31 26 31 31 32 32 38 38 38 38 38 38 38 38 37 37
33 33 33 34 35 38 34 32 31 30 33 33 33 33 33 33 31 28 26 26 24 26 28 28 29 28 29 28 31 37 37 37 37 38 38 37 37 36
31 32 34 33 32 35 33 31 27 27 28 28 29 30 30 31 31 32 31 27 23 23 27 26 27 24 21 28 27 28 28 34 35 37 37 37 37 29
29 28 30 32 33 33 33 31 27 26 25 25 25 25 26 27 28 28 28 29 24 23 27 26 24 24 21 21 25 26 26 26 27 28 33 35 35 35
26 28 29 31 30 30 28 28 27 25 25 24 23 23 24 25 27 28 28 28 28 26 27 26 20 20 18 15 17 25 25 25 25 26 26 31 32 33
28 30 30 30 29 28 28 28 27 26 25 23 23 24 26 27 29 28 28 28 28 28 29 27 23 23 18 16 17 19 20 25 25 24 24 26 26 26
28 26 26 26 27 27 27 28 27 26 25 24 24 25 27 26 25 26 25 24 22 21 28 27 27 24 17 20 21 19 22 18 22 23 25 25 27 27
26 26 25 26 25 26 26 26 26 26 24 24 23 23 24 25 25 25 25 24 21 21 21 25 28 27 24 24 18 20 19 20 19 22 23 23 26 26
25 23 23 24 23 23 22 22 23 24 24 24 23 23 23 23 23 23 22 20 17 19 19 22 21 18 21 24 28 20 15 17 19 22 22 17 22 27
24 23 22 22 21 21 21 22 21 23 24 23 23 22 22 22 20 19 19 17 17 18 17 17 17 15 10 3 21 29 16 17 18 18 20 18 19 25
22 21 20 21 21 21 21 21 21 22 22 22 21 20 20 19 18 17 15 9 12 16 18 19 17 16 8 7 7 14 28 16 13 15 19 23 25 30
21 20 20 20 20 21 21 21 20 19 19 18 18 18 17 18 15 14 13 12 14 17 15 15 18 19 17 14 7 9 17 29 28 21 20 21 18 20
20 20 21 21 20 19 20 20 19 19 18 17 16 16 14 16 15 14 13 13 14 13 13 16 20 20 17 16 11 5 14 16 27 30 31 28 18 18
20 20 20 20 20 20 21 20 19 18 18 16 16 15 15 13 14 13 14 13 13 12 12 12 16 17 17 18 13 9 11 14 18 21 22 30 31 31
MSLP
1010.29 1010.66 1010.96 1011.88 1012.36 1012.74 1012.98 1013.99 1014.98 1016.78 1018.62 1020.23 1021.51 1022.50 1022.51 1022.96 1023.48 1023.89 1024.65 1025.33 1025.44 1025.75 1026.21 1026.62 1027.00 1027.58 1028.01 1028.17 1028.26 1028.21 1028.29 1028.46 1028.57 1028.73 1028.60 1028.67 1028.65 1028.64
1009.77 1009.75 1010.04 1010.81 1011.75 1012.37 1012.52 1013.24 1014.21 1015.17 1017.42 1019.48 1021.11 1022.41 1023.07 1023.50 1024.15 1024.50 1025.43 1025.95 1026.43 1026.62 1026.93 1027.29 1028.01 1028.22 1028.54 1028.60 1028.77 1028.88 1028.87 1029.05 1029.15 1029.25 1029.20 1029.14 1029.17 1028.91
1008.99 1009.28 1009.56 1010.01 1010.98 1012.15 1012.41 1012.65 1013.55 1014.72 1017.27 1020.05 1021.12 1022.74 1023.68 1023.87 1024.63 1025.23 1026.05 1026.50 1027.18 1027.43 1027.58 1027.80 1028.38 1028.44 1029.02 1028.93 1029.07 1029.20 1029.42 1029.62 1029.58 1029.40 1029.56 1029.41 1029.38 1029.25
1008.48 1008.69 1008.86 1009.45 1010.27 1011.56 1012.29 1012.60 1013.03 1014.00 1015.92 1019.07 1021.46 1022.59 1023.79 1024.50 1025.01 1025.64 1026.33 1026.95 1027.24 1027.77 1028.09 1028.33 1028.41 1028.93 1029.06 1029.27 1029.43 1029.67 1029.96 1030.14 1029.96 1029.84 1029.75 1029.69 1029.62 1029.57
1007.91 1008.25 1008.60 1009.17 1009.87 1011.24 1011.74 1012.44 1012.65 1013.67 1015.58 1017.74 1020.36 1022.29 1023.66 1024.75 1025.44 1026.23 1026.76 1027.36 1027.58 1028.06 1028.56 1028.51 1028.63 1029.07 1029.27 1029.54 1029.79 1030.06 1030.22 1030.32 1030.13 1030.03 1029.76 1029.68 1029.59 1029.40
1007.50 1007.85 1008.33 1008.64 1009.34 1010.43 1011.46 1012.29 1012.65 1013.67 1015.56 1017.57 1019.80 1021.97 1023.18 1024.66 1025.34 1026.06 1027.17 1027.54 1027.91 1028.21 1028.71 1028.83 1028.83 1029.13 1029.33 1029.59 1030.01 1030.20 1030.30 1030.31 1030.05 1029.88 1029.66 1029.52 1029.28 1029.11
1007.19 1007.42 1007.91 1008.30 1009.03 1009.54 1010.53 1011.72 1013.23 1014.00 1015.59 1017.52 1019.26 1021.71 1022.75 1024.14 1024.63 1025.43 1026.64 1027.54 1028.36 1028.35 1028.64 1028.84 1028.74 1029.07 1029.41 1029.71 1029.88 1030.07 1030.17 1030.05 1029.87 1029.76 1029.48 1029.29 1029.17 1029.22
1007.08 1007.25 1007.43 1007.92 1008.61 1009.06 1010.17 1011.38 1012.39 1013.34 1015.38 1017.12 1018.52 1020.37 1021.27 1022.52 1023.79 1024.54 1025.96 1027.19 1028.07 1028.12 1028.34 1028.48 1028.44 1028.88 1029.11 1029.37 1029.62 1029.81 1029.98 1029.77 1029.71 1029.59 1029.44 1029.31 1029.21 1028.98
1007.28 1007.67 1008.29 1007.85 1008.49 1009.47 1010.59 1011.68 1012.61 1013.09 1013.77 1015.20 1016.94 1019.05 1019.90 1021.07 1022.11 1023.90 1024.99 1025.78 1026.91 1027.88 1027.87 1028.47 1028.55 1028.79 1028.82 1028.97 1029.42 1029.58 1029.60 1029.45 1029.37 1029.38 1029.27 1029.13 1028.90 1028.72
1008.11 1008.28 1008.45 1008.74 1008.50 1009.13 1011.03 1013.07 1013.93 1014.47 1015.31 1015.73 1016.71 1018.24 1019.40 1020.85 1021.43 1022.66 1024.40 1025.76 1027.04 1027.72 1027.84 1028.48 1028.67 1028.78 1028.90 1029.15 1029.33 1029.39 1029.48 1029.35 1029.28 1029.16 1029.01 1028.82 1028.72 1028.44
1008.98 1009.31 1009.60 1009.51 1009.45 1009.35 1011.43 1013.34 1014.80 1016.30 1016.89 1016.96 1017.35 1018.98 1019.74 1020.65 1021.77 1022.85 1024.92 1025.51 1027.14 1027.91 1028.31 1028.44 1028.84 1029.08 1029.34 1029.70 1029.51 1029.42 1029.28 1029.20 1029.05 1028.79 1028.78 1028.69 1028.47 1028.35
1010.14 1010.57 1010.64 1010.84 1011.19 1010.45 1011.19 1012.97 1014.92 1017.05 1017.28 1017.77 1018.96 1019.57 1021.30 1022.16 1022.79 1023.34 1024.13 1025.02 1026.37 1028.05 1028.41 1028.72 1028.94 1029.16 1029.75 1029.78 1029.84 1029.71 1029.60 1029.38 1029.12 1028.88 1028.66 1028.47 1028.24 1028.36
1010.90 1011.83 1012.18 1012.00 1012.08 1012.35 1012.39 1013.41 1015.17 1016.64 1018.34 1018.61 1019.98 1021.37 1022.59 1023.15 1024.05 1024.50 1024.93 1025.45 1026.40 1027.45 1028.22 1028.52 1029.22 1029.48 1029.74 1030.05 1029.96 1029.78 1029.68 1029.43 1029.35 1029.05 1028.52 1028.29 1028.09 1027.87
1011.40 1012.63 1013.34 1013.51 1013.65 1013.81 1014.53 1015.66 1016.72 1017.59 1019.02 1020.31 1021.41 1022.55 1023.38 1024.17 1024.85 1025.31 1025.69 1026.01 1026.61 1027.35 1028.18 1028.44 1029.19 1029.57 1029.90 1030.15 1030.18 1029.84 1029.54 1029.32 1029.09 1028.65 1028.38 1028.13 1027.91 1027.55
1012.17 1013.20 1014.10 1014.59 1015.18 1015.87 1016.36 1017.11 1017.90 1018.89 1020.06 1021.23 1022.29 1023.20 1023.98 1024.67 1025.19 1025.78 1026.29 1026.82 1027.31 1027.73 1028.16 1028.49 1028.85 1029.40 1029.67 1029.97 1030.01 1029.94 1029.61 1029.04 1029.02 1028.83 1028.57 1028.37 1028.28 1028.01
1013.27 1014.36 1015.00 1015.59 1016.15 1016.80 1017.71 1018.65 1019.30 1020.11 1020.85 1021.74 1022.77 1023.87 1024.62 1025.37 1025.78 1026.20 1026.70 1027.38 1027.82 1028.25 1028.28 1028.50 1028.73 1029.20 1029.52 1029.49 1029.83 1029.67 1029.41 1029.34 1029.30 1029.24 1028.95 1028.39 1027.79 1027.45
1013.55 1014.79 1015.49 1016.10 1017.05 1018.09 1018.98 1019.78 1020.49 1021.13 1021.89 1022.85 1023.59 1024.55 1025.38 1025.90 1026.43 1026.75 1027.17 1027.70 1028.03 1028.44 1028.82 1028.87 1028.85 1028.85 1028.86 1029.00 1029.64 1029.32 1029.29 1029.29 1029.62 1029.49 1029.02 1028.39 1027.47 1027.32
1013.82 1015.02 1016.38 1017.29 1017.84 1018.80 1019.77 1020.74 1021.60 1022.25 1023.01 1023.71 1024.54 1025.14 1025.64 1026.25 1026.77 1027.30 1027.70 1028.31 1028.66 1029.08 1029.37 1029.30 1029.06 1029.05 1028.96 1028.93 1028.94 1029.17 1029.32 1029.45 1029.46 1029.31 1028.87 1028.35 1027.53 1026.60
1014.80 1016.04 1017.11 1018.24 1019.09 1019.84 1020.60 1021.50 1022.45 1023.25 1023.72 1024.31 1025.06 1025.83 1026.20 1026.86 1027.37 1028.24 1028.81 1029.04 1029.33 1029.43 1029.62 1029.70 1029.66 1029.60 1030.01 1030.32 1029.71 1029.04 1029.45 1029.31 1029.22 1028.94 1028.48 1028.11 1027.76 1026.79
1016.28 1017.34 1018.26 1019.40 1020.34 1020.92 1021.71 1022.59 1023.51 1024.21 1024.84 1025.24 1025.77 1026.34 1027.11 1027.56 1028.35 1028.94 1029.45 1029.69 1029.71 1029.98 1030.09 1030.11 1030.05 1030.17 1030.39 1030.38 1030.55 1029.72 1028.97 1029.15 1028.77 1028.70 1028.33 1027.67 1026.85 1025.83
1017.50 1018.56 1019.69 1020.56 1021.44 1022.22 1023.11 1023.86 1024.64 1025.29 1025.81 1026.33 1026.84 1027.34 1027.90 1028.12 1028.76 1029.31 1029.80 1029.97 1030.16 1030.34 1030.75 1030.47 1030.62 1030.22 1029.91 1030.37 1031.08 1030.48 1029.13 1028.29 1027.84 1027.86 1027.60 1027.13 1026.42 1025.55
1018.39 1019.49 1020.58 1021.46 1022.44 1023.31 1024.08 1024.74 1025.48 1026.15 1026.66 1027.44 1027.80 1028.20 1028.57 1028.85 1029.26 1029.80 1030.21 1030.42 1030.51 1031.01 1031.44 1030.99 1030.75 1030.11 1030.02 1030.48 1030.84 1030.39 1029.74 1028.60 1027.64 1027.18 1026.71 1026.31 1026.20 1025.67
1019.68 1020.92 1021.84 1022.49 1023.16 1023.86 1024.83 1025.49 1026.17 1026.88 1027.62 1028.24 1028.50 1028.73 1028.97 1029.48 1029.77 1030.20 1030.39 1030.78 1031.17 1031.49 1031.81 1031.97 1031.01 1030.41 1030.48 1030.40 1030.35 1030.29 1030.00 1028.98 1028.02 1027.23 1026.25 1025.34 1024.96 1024.39
Wind_Speed
17 19 15 13 8 10 10 12 13 9 8 4 4 6 7 7 11 12 13 19 20 20 19 20 20 18 16 15 14 14 15 14 13 12 13 12 12 12
8 15 14 13 9 6 10 12 11 12 10 3 3 5 7 9 13 13 15 19 20 20 19 20 17 17 16 14 13 12 13 13 13 12 12 12 12 13
14 15 16 16 14 4 7 10 10 9 8 3 4 8 7 11 10 11 10 10 10 18 18 18 16 16 14 13 13 12 12 11 11 12 12 12 13 14
12 10 16 11 15 13 5 13 13 9 10 12 8 3 5 8 10 11 8 7 9 14 15 15 15 13 14 13 12 11 10 10 11 11 11 12 12 13
13 13 12 16 17 11 4 7 11 10 13 11 7 3 4 7 7 7 8 7 7 13 11 11 11 11 12 11 11 9 8 8 9 8 9 10 11 12
13 13 16 17 18 14 8 6 9 13 13 11 8 5 5 5 5 8 5 3 5 5 4 4 6 7 9 10 10 8 8 6 6 7 8 8 9 11
9 14 13 14 17 13 10 10 11 10 11 10 10 4 5 7 8 5 4 5 2 1 3 3 3 3 4 8 8 7 5 4 6 6 7 7 9 10
9 6 10 17 16 14 12 13 14 13 10 8 7 11 9 9 7 9 8 5 4 1 2 2 2 3 5 4 8 6 3 5 4 6 8 7 8 9
7 6 3 3 14 13 20 20 17 13 11 9 17 9 10 12 12 11 8 4 4 3 3 3 2 3 3 5 9 4 3 1 4 6 5 6 7 8
7 5 4 7 10 18 15 14 13 12 7 7 10 9 10 12 11 10 11 11 8 5 1 3 2 2 1 3 7 5 5 6 5 5 6 6 7 10
9 8 7 5 14 27 20 19 18 16 22 29 31 28 26 23 17 13 10 10 4 2 2 2 1 2 2 2 2 8 5 6 7 7 8 9 10 11
11 11 14 13 12 17 21 19 19 13 16 18 16 22 19 17 15 8 8 7 7 2 1 2 2 2 2 1 1 3 4 6 10 6 10 11 14 3
10 9 9 18 19 18 21 15 18 17 17 16 14 12 10 11 8 8 7 5 4 3 1 2 2 2 2 1 2 1 2 3 2 2 10 13 15 13
12 10 13 26 28 30 24 33 30 19 12 12 12 11 9 8 7 8 9 9 8 9 5 4 4 3 2 1 0 2 3 2 1 2 3 8 11 13
12 22 30 32 34 26 31 29 19 12 12 12 11 10 9 8 10 9 9 10 8 8 5 4 4 3 3 3 2 2 2 2 3 3 4 5 4 4
24 15 15 18 20 19 16 14 10 10 11 12 11 9 8 7 7 5 6 5 3 2 3 4 4 4 2 2 2 2 2 1 4 4 5 4 4 3
19 13 12 12 13 12 12 12 11 11 11 10 10 10 9 7 6 4 5 5 5 3 2 1 1 2 2 3 1 1 0 2 1 3 3 5 6 4
14 13 12 11 12 12 12 11 10 11 10 9 9 8 9 8 7 6 6 4 4 3 1 2 2 3 3 3 7 1 2 1 2 4 3 1 5 7
12 12 12 11 11 11 11 10 10 8 10 9 9 7 8 8 8 6 5 3 3 3 3 1 2 3 3 2 3 3 2 2 2 3 3 3 4 9
11 11 12 10 10 10 10 9 9 9 8 7 7 7 7 8 7 6 4 3 3 3 4 3 3 1 4 4 2 4 12 3 2 3 4 5 7 18
12 12 10 10 10 9 9 9 9 8 8 7 7 7 6 7 6 4 4 6 5 4 5 4 3 5 1 3 4 4 5 10 7 4 4 5 3 3
12 12 10 10 10 10 9 9 9 9 8 7 6 6 4 6 6 5 4 4 4 4 1 2 4 4 3 1 2 3 4 5 11 12 12 6 3 3
11 10 10 10 9 10 9 8 9 8 7 6 6 5 5 5 4 4 5 5 5 4 3 2 3 2 2 1 2 2 4 4 3 5 5 9 13 13
Wind_Direction
208 195 192 192 189 186 179 180 171 164 173 169 118 92 99 99 98 97 94 97 100 101 102 102 100 95 91 86 83 88 88 86 74 66 58 43 34 26
209 199 192 189 187 200 182 181 184 183 158 106 82 119 109 104 107 103 105 102 98 98 99 97 96 95 93 91 86 91 89 80 73 59 49 38 28 25
205 201 192 183 187 170 205 185 178 177 133 97 92 118 99 115 110 102 106 103 102 104 106 108 108 107 101 97 94 95 91 81 71 59 43 35 25 17
202 202 192 179 190 205 183 199 176 143 141 137 135 120 108 120 113 111 108 103 109 110 113 115 114 119 113 102 97 94 87 74 62 50 36 29 20 9
201 196 190 189 187 198 158 195 161 135 143 143 130 116 104 130 114 104 108 107 103 117 120 120 121 122 122 105 98 98 89 76 60 38 35 25 13 4
203 199 201 199 193 190 155 152 143 130 131 133 112 123 123 128 126 132 123 108 119 132 122 146 149 145 134 120 118 104 91 76 43 32 30 17 6 0
201 207 202 194 188 171 163 143 144 133 132 136 122 135 133 156 171 155 122 121 111 138 158 173 164 181 179 136 112 106 90 53 36 27 15 2 4 351
199 202 209 190 182 158 147 156 154 139 142 142 140 172 163 164 151 153 141 143 144 221 154 143 129 114 125 148 131 117 64 48 33 8 1 10 353 340
204 151 95 125 126 118 96 86 69 72 140 153 158 170 153 172 147 146 147 118 114 147 147 109 115 130 144 141 141 119 49 54 20 3 2 347 329 344
60 60 153 130 137 121 109 88 76 61 67 86 114 118 118 140 132 130 120 112 96 79 80 122 178 120 80 126 134 80 35 35 11 358 350 353 10 345
67 69 73 97 131 125 117 104 96 85 85 96 100 103 101 103 116 116 129 128 106 95 35 122 93 102 96 93 84 35 12 359 356 343 24 5 1 348
74 66 83 95 93 122 117 120 106 111 107 95 86 86 86 88 83 107 134 118 113 126 172 129 107 108 104 112 31 9 349 348 341 41 16 12 1 335
95 82 74 90 97 96 100 105 110 112 100 94 92 87 87 81 79 69 67 106 113 87 124 112 99 82 82 39 334 310 319 321 337 2 12 4 358 356
107 100 98 98 96 97 97 107 106 102 100 100 101 99 99 96 89 85 83 79 77 100 104 108 118 119 124 53 170 312 311 347 111 13 355 351 347 345
106 111 109 104 102 96 101 104 103 103 107 105 104 101 102 106 106 100 92 97 102 113 117 103 109 130 124 165 201 256 328 334 21 14 346 340 319 313
110 106 106 101 95 101 100 92 94 98 106 107 104 100 100 103 106 114 116 120 108 82 130 152 160 157 176 199 190 267 336 14 358 349 326 299 307 310
119 113 111 109 105 101 96 95 95 97 99 103 106 110 111 108 93 79 87 95 89 87 94 192 169 142 162 210 220 130 7 23 306 303 323 315 312 295
115 113 110 109 108 111 108 103 100 106 108 110 111 117 118 114 101 84 80 80 84 76 69 57 42 23 28 4 69 96 19 231 277 294 297 279 300 314
102 106 104 104 105 104 104 106 107 105 111 110 114 114 110 100 92 85 76 74 63 67 56 76 73 81 64 4 312 315 165 264 276 298 241 215 264 290
90 96 101 101 100 100 101 103 103 102 102 101 99 97 97 105 103 98 85 91 79 57 62 47 44 81 144 190 228 275 289 235 210 257 281 274 258 267
98 93 92 96 97 96 98 98 100 96 93 92 92 95 95 106 103 95 90 88 80 64 54 25 316 286 225 84 24 304 291 303 301 260 260 275 257 284
97 100 101 98 95 99 102 105 105 101 95 88 91 98 87 98 99 91 87 89 72 80 56 354 329 340 32 96 253 268 292 313 315 302 292 255 201 295
92 96 102 103 105 109 111 107 104 103 100 97 95 102 94 90 94 96 86 77 83 67 33 311 347 7 338 287 269 286 297 299 293 318 306 302 306 297